Location: Unspecified
(0.0000°N, 0.0000°E)
Time: 23:14:20
(UTC+00:00)

deb Blok Kosmos - Pass Details

Date: 11 December 2025
Orbit: 1262 x 1713 km, 55.4° (Epoch: 19 January)

Event Time Altitude Azimuth Distance (km) Brightness Sun altitude
Rises 20:17:34 0° 209° (SSW) 4,496 ? -32.7°
Reaches altitude 10° 20:20:23 10° 208° (SSW) 3,575 ? -33.4°
Maximum altitude 20:29:24 82° 120° (ESE) 1,579 ? -35.4°
Enters shadow 20:29:33 81° 106° (ESE) 1,581 ? -35.4°
